Weather History for CWDK - October, 2012

Change the Weather History Date:

Wednesday, October 24, 2012

  Actual Average Record
Temperature  
Mean Temperature 16 °F -  
Max Temperature 25 °F - - ()
Min Temperature 7 °F - - ()
Degree Days  
Heating Degree Days 49    
Moisture  
Dew Point 13 °F    
Average Humidity 81    
Maximum Humidity 90    
Minimum Humidity 62    
Precipitation  
Precipitation 0.00 in - - ()
Sea Level Pressure  
Sea Level Pressure 30.29 in    
Wind  
Wind Speed 4 mph ()    
Max Wind Speed 12 mph    
Max Gust Speed -    
T = Trace of Precipitation, MM = Missing Value Source: Averaged Metar Reports

Daily Weather History Graph

Daily Weather History Graph

Search for Another Location

Airport or City:

Trip Planner

Search our weather history database for the weather conditions in past years. The results will help you decide how hot, cold, wet, or windy it might be!

Date:

Astronomy

Oct. 24, 2012 Rise Set
Actual Time 8:11 AM MDT 6:24 PM MDT
Civil Twilight 7:38 AM MDT 6:57 PM MDT
Nautical Twilight 7:00 AM MDT 7:35 PM MDT
Astronomical Twilight 6:23 AM MDT 8:12 PM MDT
Moon 4:05 PM MDT (10/24) 2:44 AM MDT (10/24)
Length of Visible Light 11h 19m
Length of Day
10h 12m
Waxing Gibbous, 76% of the Moon is Illuminated
Oct 24
Waxing Gibbous
Oct 29
Full
Nov 6
Last Quarter
Nov 13
New
Nov 20
First Quarter

Hourly Weather History & Observations

Time (MDT) Temp. Windchill Dew Point Humidity Pressure Visibility Wind Dir Wind Speed Gust Speed Precip Events Conditions
12:00 AM 8 °F - 6 °F 85% 30.20 in - WSW 2.3 mph - -  
12:00 AM 8.1 °F - 5.5 °F 89% 30.20 in - WSW 2.3 mph - N/A   Unknown
1:00 AM 15.1 °F 9.4 °F 12.2 °F 88% 30.19 in - North 3.5 mph - N/A   Unknown
2:00 AM 15.4 °F - 12.4 °F 88% 30.19 in - North 2.3 mph - N/A   Unknown
3:00 AM 16.5 °F - 14.0 °F 90% 30.19 in - WNW 1.2 mph - N/A   Unknown
4:00 AM 17.4 °F 12.1 °F 14.5 °F 88% 30.20 in - NNW 3.5 mph - N/A   Unknown
5:00 AM 18.1 °F 11.3 °F 14.9 °F 87% 30.22 in - NW 4.6 mph - N/A   Unknown
6:00 AM 15.6 °F 8.3 °F 12.7 °F 88% 30.24 in - NNW 4.6 mph - N/A   Unknown
7:00 AM 12.7 °F 3.6 °F 10.0 °F 89% 30.25 in - North 5.8 mph - N/A   Unknown
8:00 AM 15.6 °F 4.9 °F 12.4 °F 87% 30.26 in - North 8.1 mph - N/A   Unknown
9:00 AM 17.1 °F 10.0 °F 13.1 °F 84% 30.27 in - NNW 4.6 mph - N/A   Unknown
10:00 AM 20.1 °F 12.3 °F 14.2 °F 78% 30.29 in - NW 5.8 mph - N/A   Unknown
11:00 AM 19.4 °F 12.8 °F 12.9 °F 76% 30.32 in - NNW 4.6 mph - N/A   Unknown
12:00 PM 22 °F - 14 °F 62% 30.30 in - NNW 9.2 mph - -  
12:00 PM 22.3 °F 12.2 °F 14.4 °F 72% 30.30 in - NNW 9.2 mph - N/A   Unknown
1:00 PM 23.9 °F 12.9 °F 15.4 °F 70% 30.30 in - North 11.5 mph - N/A   Unknown
2:00 PM 24.6 °F 15.8 °F 15.3 °F 68% 30.30 in - North 8.1 mph - N/A   Unknown
3:00 PM 24.6 °F 15.8 °F 15.3 °F 68% 30.30 in - North 8.1 mph - N/A   Unknown
4:00 PM 24.1 °F 16.0 °F 15.6 °F 70% 30.32 in - NNE 6.9 mph - N/A   Unknown
5:00 PM 23.4 °F 17.4 °F 15.1 °F 71% 30.35 in - North 4.6 mph - N/A   Unknown
6:00 PM 14 °F - 10 °F 78% 30.40 in - WNW 3.5 mph - -  
6:00 PM 14.0 °F 8.2 °F 10.2 °F 85% 30.40 in - WNW 3.5 mph - N/A   Unknown
8:00 PM 20.5 °F - 16.3 °F 84% 30.40 in - NNW 1.2 mph - N/A   Unknown
9:00 PM 20.5 °F - 16.7 °F 85% 30.41 in - NW 1.2 mph - N/A   Unknown
10:00 PM 22.3 °F - 17.8 °F 83% 30.42 in - North 2.3 mph - N/A   Unknown
11:00 PM 20.8 °F - 18.0 °F 89% 30.43 in - WNW 1.2 mph - N/A   Unknown